RESURS-DK 1

Last updated on Sun Jun 21 2026 00:02:15 GMT+0000 (Coordinated Universal Time)

1 29228U 06021A 26171.40661411 .00001448 00000+0 87373-4 0 9990 2 29228 69.9331 331.2197 0006868 290.2744 69.7684 15.13228164103061
UTC large
Height (km)
Speed (km/s)
/
Latitude / Longitude
Inclination (degrees)
Orbital Period (minutes)
Azimuth
Elevation
Range (km)
Doppler Factor

Next 0 passes for location: London (51.5072 / 0.1276)

No passes found over London.
RESURS-DK 1